Time,TemperatureF,DewpointF,PressureIn,WindDirection,WindDirectionDegrees,WindSpeedMPH,WindSpeedGustMPH,Humidity,HourlyPrecipIn,Conditions,Clouds,dailyrainin,SoftwareType,DateUTC
2013-03-10 00:01:00,34.0,32.0,29.84,NW,322,0.0,2.0,92,0.00,,,0.00,,2013-03-10 06:01:00,
2013-03-10 00:11:00,34.0,32.0,29.84,NW,319,1.0,3.0,92,0.00,,,0.00,,2013-03-10 06:11:00,
2013-03-10 00:22:00,34.0,32.0,29.84,NW,319,1.0,3.0,92,0.00,,,0.00,,2013-03-10 06:22:00,
2013-03-10 00:32:00,34.0,32.0,29.84,NW,319,1.0,3.0,92,0.00,,,0.00,,2013-03-10 06:32:00,
2013-03-10 00:42:00,34.0,32.0,29.84,NNW,348,0.0,7.0,92,0.00,,,0.00,,2013-03-10 06:42:00,
2013-03-10 00:52:00,34.0,32.0,29.84,NNW,348,0.0,7.0,92,0.00,,,0.00,,2013-03-10 06:52:00,
2013-03-10 01:01:00,34.0,32.0,29.84,NNW,348,0.0,7.0,92,0.00,,,0.00,,2013-03-10 07:01:00,
2013-03-10 01:11:00,34.0,32.0,29.85,NNW,329,0.0,5.0,92,0.00,,,0.00,,2013-03-10 07:11:00,
2013-03-10 01:21:00,34.0,32.0,29.85,NNW,329,0.0,5.0,92,0.00,,,0.00,,2013-03-10 07:21:00,
2013-03-10 01:31:00,34.0,32.0,29.85,NNW,329,0.0,5.0,92,0.00,,,0.00,,2013-03-10 07:31:00,
2013-03-10 01:42:00,34.0,32.0,29.85,NNW,346,0.0,5.0,92,0.00,,,0.00,,2013-03-10 07:42:00,
2013-03-10 01:52:00,34.0,32.0,29.85,NNW,346,0.0,5.0,92,0.00,,,0.00,,2013-03-10 07:52:00,
2013-03-10 03:01:00,34.0,32.0,29.85,NNW,346,0.0,5.0,92,0.00,,,0.00,,2013-03-10 08:01:00,
2013-03-10 03:11:00,34.0,32.0,29.84,NNW,330,1.0,8.0,91,0.00,,,0.00,,2013-03-10 08:11:00,
2013-03-10 03:21:00,34.0,32.0,29.84,NNW,330,1.0,8.0,91,0.00,,,0.00,,2013-03-10 08:21:00,
2013-03-10 03:31:00,34.0,32.0,29.84,NNW,330,1.0,8.0,91,0.00,,,0.00,,2013-03-10 08:31:00,
2013-03-10 03:42:00,34.0,32.0,29.85,North,351,1.0,7.0,91,0.00,,,0.00,,2013-03-10 08:42:00,
2013-03-10 03:52:00,34.0,32.0,29.85,North,351,1.0,7.0,91,0.00,,,0.00,,2013-03-10 08:52:00,
2013-03-10 04:01:00,34.0,32.0,29.85,North,351,1.0,7.0,91,0.00,,,0.00,,2013-03-10 09:01:00,
2013-03-10 04:11:00,34.0,31.0,29.86,NW,326,1.0,9.0,89,0.00,,,0.00,,2013-03-10 09:11:00,
2013-03-10 04:21:00,34.0,31.0,29.86,NW,326,1.0,9.0,89,0.00,,,0.00,,2013-03-10 09:21:00,
2013-03-10 04:31:00,34.0,31.0,29.86,NW,326,1.0,9.0,89,0.00,,,0.00,,2013-03-10 09:31:00,
2013-03-10 04:42:00,34.0,31.0,29.86,NW,326,1.0,9.0,89,0.00,,,0.00,,2013-03-10 09:42:00,
2013-03-10 04:52:00,34.0,30.0,29.87,North,350,1.0,14.0,86,0.00,,,0.00,,2013-03-10 09:52:00,
2013-03-10 05:01:00,34.0,30.0,29.87,North,350,1.0,14.0,86,0.00,,,0.00,,2013-03-10 10:01:00,
2013-03-10 05:11:00,34.0,30.0,29.87,North,350,1.0,14.0,86,0.00,,,0.00,,2013-03-10 10:11:00,
2013-03-10 05:21:00,34.0,30.0,29.86,North,0,2.0,10.0,84,0.00,,,0.00,,2013-03-10 10:21:00,
2013-03-10 05:32:00,34.0,30.0,29.86,North,0,2.0,10.0,84,0.00,,,0.00,,2013-03-10 10:32:00,
2013-03-10 05:42:00,34.0,30.0,29.87,North,349,3.0,12.0,84,0.00,,,0.00,,2013-03-10 10:42:00,
2013-03-10 05:52:00,34.0,30.0,29.87,North,349,3.0,12.0,84,0.00,,,0.00,,2013-03-10 10:52:00,
2013-03-10 06:01:00,34.0,30.0,29.87,North,349,3.0,12.0,84,0.00,,,0.00,,2013-03-10 11:01:00,
2013-03-10 06:12:00,34.0,29.0,29.89,North,359,4.0,13.0,83,0.00,,,0.00,,2013-03-10 11:12:00,
2013-03-10 06:21:00,34.0,29.0,29.89,North,359,4.0,13.0,83,0.00,,,0.00,,2013-03-10 11:21:00,
2013-03-10 06:31:00,34.0,29.0,29.89,North,359,4.0,13.0,83,0.00,,,0.00,,2013-03-10 11:31:00,
2013-03-10 06:42:00,34.0,29.0,29.89,North,359,4.0,13.0,83,0.00,,,0.00,,2013-03-10 11:42:00,
2013-03-10 06:52:00,34.0,29.0,29.91,NNW,346,0.0,13.0,82,0.00,,,0.00,,2013-03-10 11:52:00,
2013-03-10 07:01:00,34.0,29.0,29.91,NNW,346,0.0,13.0,82,0.00,,,0.00,,2013-03-10 12:01:00,
2013-03-10 07:11:00,34.0,29.0,29.91,NNW,346,0.0,13.0,82,0.00,,,0.00,,2013-03-10 12:11:00,
2013-03-10 07:21:00,34.0,29.0,29.91,North,5,5.0,15.0,81,0.00,,,0.00,,2013-03-10 12:21:00,
2013-03-10 07:31:00,34.0,29.0,29.91,North,5,5.0,15.0,81,0.00,,,0.00,,2013-03-10 12:31:00,
2013-03-10 07:42:00,34.0,29.0,29.91,North,5,5.0,15.0,81,0.00,,,0.00,,2013-03-10 12:42:00,
2013-03-10 07:52:00,34.0,28.0,29.91,North,1,4.0,13.0,79,0.00,,,0.00,,2013-03-10 12:52:00,
2013-03-10 08:01:00,34.0,28.0,29.91,North,1,4.0,13.0,79,0.00,,,0.00,,2013-03-10 13:01:00,
2013-03-10 08:11:00,34.0,28.0,29.91,North,1,4.0,13.0,79,0.00,,,0.00,,2013-03-10 13:11:00,
2013-03-10 08:21:00,34.0,28.0,29.92,NNE,18,2.0,15.0,78,0.00,,,0.00,,2013-03-10 13:21:00,
2013-03-10 08:31:00,34.0,28.0,29.92,NNE,18,2.0,15.0,78,0.00,,,0.00,,2013-03-10 13:31:00,
2013-03-10 08:42:00,34.0,28.0,29.92,NNE,18,2.0,15.0,78,0.00,,,0.00,,2013-03-10 13:42:00,
2013-03-10 08:52:00,34.0,28.0,29.96,North,359,1.0,15.0,79,0.00,,,0.00,,2013-03-10 13:52:00,
2013-03-10 09:01:00,34.0,28.0,29.96,North,359,1.0,15.0,79,0.00,,,0.00,,2013-03-10 14:01:00,
2013-03-10 09:11:00,34.0,28.0,29.96,North,359,1.0,15.0,79,0.00,,,0.00,,2013-03-10 14:11:00,
2013-03-10 09:21:00,34.0,28.0,29.98,North,351,4.0,16.0,78,0.00,,,0.00,,2013-03-10 14:21:00,
2013-03-10 09:32:00,34.0,28.0,29.98,North,351,4.0,16.0,78,0.00,,,0.00,,2013-03-10 14:32:00,
2013-03-10 09:42:00,34.0,28.0,29.98,North,351,4.0,16.0,78,0.00,,,0.00,,2013-03-10 14:42:00,
2013-03-10 09:52:00,34.0,28.0,29.99,North,0,3.0,12.0,78,0.00,,,0.00,,2013-03-10 14:52:00,
2013-03-10 10:01:00,34.0,28.0,29.99,North,0,3.0,12.0,78,0.00,,,0.00,,2013-03-10 15:01:00,
2013-03-10 10:11:00,34.0,28.0,29.99,North,0,3.0,12.0,78,0.00,,,0.00,,2013-03-10 15:11:00,
2013-03-10 10:21:00,33.0,27.0,29.96,NNW,345,4.0,18.0,77,0.00,,,0.00,,2013-03-10 15:21:00,
2013-03-10 10:32:00,33.0,27.0,29.96,NNW,345,4.0,18.0,77,0.00,,,0.00,,2013-03-10 15:32:00,
2013-03-10 10:42:00,33.0,27.0,29.96,NNW,345,4.0,18.0,77,0.00,,,0.00,,2013-03-10 15:42:00,
2013-03-10 10:52:00,33.0,26.0,30.01,North,351,5.0,11.0,76,0.00,,,0.00,,2013-03-10 15:52:00,
2013-03-10 11:01:00,33.0,26.0,30.01,North,351,5.0,11.0,76,0.00,,,0.00,,2013-03-10 16:01:00,
2013-03-10 11:12:00,33.0,26.0,30.01,North,351,5.0,11.0,76,0.00,,,0.00,,2013-03-10 16:12:00,
2013-03-10 11:21:00,32.0,26.0,29.99,NNW,336,1.0,13.0,77,0.00,,,0.00,,2013-03-10 16:21:00,
2013-03-10 11:31:00,32.0,26.0,29.99,NNW,336,1.0,13.0,77,0.00,,,0.00,,2013-03-10 16:31:00,
2013-03-10 11:42:00,32.0,26.0,29.99,NNW,336,1.0,13.0,77,0.00,,,0.00,,2013-03-10 16:42:00,
2013-03-10 11:52:00,33.0,26.0,30.01,NNE,17,3.0,15.0,76,0.00,,,0.00,,2013-03-10 16:52:00,
2013-03-10 12:01:00,33.0,26.0,30.01,NNE,17,3.0,15.0,76,0.00,,,0.00,,2013-03-10 17:01:00,
2013-03-10 12:11:00,33.0,26.0,30.01,NNE,17,3.0,15.0,76,0.00,,,0.00,,2013-03-10 17:11:00,
2013-03-10 12:21:00,33.0,26.0,29.99,North,9,7.0,21.0,74,0.00,,,0.00,,2013-03-10 17:21:00,
2013-03-10 12:31:00,33.0,26.0,29.99,North,9,7.0,21.0,74,0.00,,,0.00,,2013-03-10 17:31:00,
2013-03-10 12:41:00,33.0,26.0,29.99,North,9,7.0,21.0,74,0.00,,,0.00,,2013-03-10 17:41:00,
2013-03-10 12:51:00,33.0,25.0,30.01,North,354,2.0,16.0,73,0.00,,,0.00,,2013-03-10 17:51:00,
2013-03-10 13:01:00,33.0,25.0,30.01,North,354,2.0,16.0,73,0.00,,,0.00,,2013-03-10 18:01:00,
2013-03-10 13:11:00,33.0,25.0,30.01,NNE,16,1.0,18.0,72,0.00,,,0.00,,2013-03-10 18:11:00,
2013-03-10 13:21:00,33.0,25.0,30.01,NNE,16,1.0,18.0,72,0.00,,,0.00,,2013-03-10 18:21:00,
2013-03-10 13:32:00,33.0,25.0,30.01,NNE,16,1.0,18.0,72,0.00,,,0.00,,2013-03-10 18:32:00,
2013-03-10 13:42:00,33.0,25.0,30.01,NNE,16,1.0,18.0,72,0.00,,,0.00,,2013-03-10 18:42:00,
2013-03-10 13:52:00,33.0,24.0,29.99,North,4,10.0,23.0,70,0.00,,,0.00,,2013-03-10 18:52:00,
2013-03-10 14:01:00,33.0,24.0,29.99,North,4,10.0,23.0,70,0.00,,,0.00,,2013-03-10 19:01:00,
2013-03-10 14:11:00,33.0,24.0,29.99,North,4,10.0,23.0,70,0.00,,,0.00,,2013-03-10 19:11:00,
2013-03-10 14:21:00,32.0,23.0,29.98,North,350,3.0,21.0,70,0.00,,,0.00,,2013-03-10 19:21:00,
2013-03-10 14:31:00,32.0,23.0,29.98,North,350,3.0,21.0,70,0.00,,,0.00,,2013-03-10 19:31:00,
2013-03-10 14:42:00,32.0,23.0,29.98,North,350,3.0,21.0,70,0.00,,,0.00,,2013-03-10 19:42:00,
2013-03-10 14:53:00,33.0,24.0,29.98,NNW,345,9.0,24.0,69,0.00,,,0.00,,2013-03-10 19:53:00,
2013-03-10 15:02:00,33.0,24.0,29.98,NNW,345,9.0,24.0,69,0.00,,,0.00,,2013-03-10 20:02:00,
2013-03-10 15:12:00,33.0,24.0,29.98,NNW,345,9.0,24.0,69,0.00,,,0.00,,2013-03-10 20:12:00,
2013-03-10 15:22:00,32.0,23.0,29.99,NNE,20,8.0,22.0,69,0.00,,,0.00,,2013-03-10 20:22:00,
2013-03-10 15:32:00,32.0,23.0,29.99,NNE,20,8.0,22.0,69,0.00,,,0.00,,2013-03-10 20:32:00,
2013-03-10 15:43:00,32.0,23.0,29.99,NNE,20,8.0,22.0,69,0.00,,,0.00,,2013-03-10 20:43:00,
2013-03-10 15:53:00,32.0,23.0,30.00,North,359,2.0,20.0,69,0.00,,,0.00,,2013-03-10 20:53:00,
2013-03-10 16:02:00,32.0,23.0,30.00,North,359,2.0,20.0,69,0.00,,,0.00,,2013-03-10 21:02:00,
2013-03-10 16:12:00,32.0,23.0,30.00,North,359,2.0,20.0,69,0.00,,,0.00,,2013-03-10 21:12:00,
2013-03-10 16:22:00,32.0,23.0,29.98,North,8,4.0,15.0,70,0.00,,,0.00,,2013-03-10 21:22:00,
2013-03-10 16:32:00,32.0,23.0,29.98,North,8,4.0,15.0,70,0.00,,,0.00,,2013-03-10 21:32:00,
2013-03-10 16:43:00,32.0,23.0,29.98,North,8,4.0,15.0,70,0.00,,,0.00,,2013-03-10 21:43:00,
2013-03-10 16:53:00,32.0,23.0,29.98,NNW,347,3.0,12.0,70,0.00,,,0.00,,2013-03-10 21:53:00,
2013-03-10 17:02:00,32.0,23.0,29.98,NNW,347,3.0,12.0,70,0.00,,,0.00,,2013-03-10 22:02:00,
2013-03-10 17:12:00,32.0,23.0,29.98,NNW,347,3.0,12.0,70,0.00,,,0.00,,2013-03-10 22:12:00,
2013-03-10 17:22:00,31.0,22.0,29.96,North,349,1.0,15.0,70,0.00,,,0.00,,2013-03-10 22:22:00,
2013-03-10 17:32:00,31.0,22.0,29.96,North,349,1.0,15.0,70,0.00,,,0.00,,2013-03-10 22:32:00,
2013-03-10 17:43:00,31.0,22.0,29.96,North,349,1.0,15.0,70,0.00,,,0.00,,2013-03-10 22:43:00,
2013-03-10 17:53:00,31.0,22.0,29.96,NNW,345,2.0,16.0,69,0.00,,,0.00,,2013-03-10 22:53:00,
2013-03-10 18:02:00,31.0,22.0,29.96,NNW,345,2.0,16.0,69,0.00,,,0.00,,2013-03-10 23:02:00,
2013-03-10 18:12:00,31.0,22.0,29.96,North,357,1.0,19.0,69,0.00,,,0.00,,2013-03-10 23:12:00,
2013-03-10 18:23:00,31.0,22.0,29.96,North,357,1.0,19.0,69,0.00,,,0.00,,2013-03-10 23:23:00,
2013-03-10 18:32:00,31.0,22.0,29.96,North,357,1.0,19.0,69,0.00,,,0.00,,2013-03-10 23:32:00,
2013-03-10 18:43:00,31.0,22.0,29.96,North,357,1.0,19.0,69,0.00,,,0.00,,2013-03-10 23:43:00,
2013-03-10 18:52:00,31.0,22.0,29.96,NNE,14,6.0,16.0,70,0.00,,,0.00,,2013-03-10 23:52:00,
2013-03-10 19:02:00,31.0,22.0,29.96,NNE,14,6.0,16.0,70,0.00,,,0.00,,2013-03-11 00:02:00,
2013-03-10 19:12:00,31.0,22.0,29.96,NNE,14,6.0,16.0,70,0.00,,,0.00,,2013-03-11 00:12:00,
2013-03-10 19:22:00,31.0,22.0,29.96,North,359,3.0,18.0,69,0.00,,,0.00,,2013-03-11 00:22:00,
2013-03-10 19:33:00,31.0,22.0,29.96,North,359,3.0,18.0,69,0.00,,,0.00,,2013-03-11 00:33:00,
2013-03-10 19:43:00,31.0,22.0,29.96,North,359,3.0,18.0,69,0.00,,,0.00,,2013-03-11 00:43:00,
2013-03-10 19:53:00,30.0,21.0,29.97,North,354,4.0,13.0,68,0.00,,,0.00,,2013-03-11 00:53:00,
2013-03-10 20:02:00,30.0,21.0,29.97,North,354,4.0,13.0,68,0.00,,,0.00,,2013-03-11 01:02:00,
2013-03-10 20:13:00,30.0,21.0,29.97,North,354,4.0,13.0,68,0.00,,,0.00,,2013-03-11 01:13:00,
2013-03-10 20:22:00,30.0,21.0,29.97,North,353,2.0,14.0,68,0.00,,,0.00,,2013-03-11 01:22:00,
2013-03-10 20:32:00,30.0,21.0,29.97,North,353,2.0,14.0,68,0.00,,,0.00,,2013-03-11 01:32:00,
2013-03-10 20:43:00,30.0,21.0,29.97,North,353,2.0,14.0,68,0.00,,,0.00,,2013-03-11 01:43:00,
2013-03-10 20:53:00,30.0,21.0,29.97,North,356,0.0,19.0,68,0.00,,,0.00,,2013-03-11 01:53:00,
2013-03-10 21:02:00,30.0,21.0,29.97,North,356,0.0,19.0,68,0.00,,,0.00,,2013-03-11 02:02:00,
2013-03-10 21:12:00,30.0,21.0,29.97,North,356,0.0,19.0,68,0.00,,,0.00,,2013-03-11 02:12:00,
2013-03-10 21:22:00,30.0,21.0,29.98,North,0,5.0,18.0,68,0.00,,,0.00,,2013-03-11 02:22:00,
2013-03-10 21:32:00,30.0,21.0,29.98,North,0,5.0,18.0,68,0.00,,,0.00,,2013-03-11 02:32:00,
2013-03-10 21:42:00,30.0,21.0,29.98,North,0,5.0,18.0,68,0.00,,,0.00,,2013-03-11 02:42:00,
2013-03-10 21:52:00,29.0,20.0,29.98,North,353,1.0,17.0,70,0.00,,,0.00,,2013-03-11 02:52:00,
2013-03-10 22:02:00,29.0,20.0,29.98,North,353,1.0,17.0,70,0.00,,,0.00,,2013-03-11 03:02:00,
2013-03-10 22:12:00,29.0,20.0,29.98,North,353,1.0,17.0,70,0.00,,,0.00,,2013-03-11 03:12:00,
2013-03-10 22:22:00,29.0,20.0,29.98,North,0,1.0,12.0,70,0.00,,,0.00,,2013-03-11 03:22:00,
2013-03-10 22:32:00,29.0,20.0,29.98,North,0,1.0,12.0,70,0.00,,,0.00,,2013-03-11 03:32:00,
2013-03-10 22:43:00,29.0,20.0,29.98,North,0,1.0,12.0,70,0.00,,,0.00,,2013-03-11 03:43:00,
2013-03-10 22:53:00,29.0,20.0,29.97,North,8,5.0,14.0,70,0.00,,,0.00,,2013-03-11 03:53:00,
2013-03-10 23:02:00,29.0,20.0,29.97,North,8,5.0,14.0,70,0.00,,,0.00,,2013-03-11 04:02:00,
2013-03-10 23:12:00,29.0,20.0,29.97,North,8,5.0,14.0,70,0.00,,,0.00,,2013-03-11 04:12:00,
2013-03-10 23:22:00,29.0,20.0,29.95,North,1,2.0,14.0,69,0.00,,,0.00,,2013-03-11 04:22:00,
2013-03-10 23:32:00,29.0,20.0,29.95,North,1,2.0,14.0,69,0.00,,,0.00,,2013-03-11 04:32:00,
2013-03-10 23:43:00,29.0,20.0,29.95,North,1,2.0,14.0,69,0.00,,,0.00,,2013-03-11 04:43:00,
2013-03-10 23:53:00,29.0,20.0,29.93,North,356,3.0,13.0,69,0.00,,,0.00,,2013-03-11 04:53:00,